Location: Newark
(58.9986°N, 38.5006°E)
Time: 14:21:18
(UTC+00:00)

Envisat - Visible Passes

Search period start: 13 December 2019 00:00
Search period end: 23 December 2019 00:00
Orbit: 764 x 766 km, 98.1° (Epoch: 13 December)

Date Brightness Start Highest point End Pass type
(mag) Time Alt. Az. Time Alt. Az. Time Alt. Az.
13 Dec 6.0 02:47:44 10° NE 02:50:43 15° E 02:53:40 10° ESE visible
13 Dec 3.4 04:25:38 10° NNE 04:30:44 68° ESE 04:35:48 10° S visible
13 Dec 3.2 14:10:45 10° SE 14:15:36 47° ENE 14:20:30 10° N visible
13 Dec 4.3 15:49:59 10° SSW 15:54:46 40° W 15:59:36 10° NNW visible
14 Dec 4.5 03:48:59 10° NNE 03:53:45 39° E 03:58:30 10° SSE visible
14 Dec 3.8 13:34:44 10° ESE 13:39:05 30° NE 13:43:28 10° N visible
14 Dec 3.2 15:12:44 10° S 15:17:48 71° WSW 15:22:55 10° NNW visible
14 Dec 5.8 16:54:40 10° WSW 16:57:47 16° W 17:00:55 10° NW visible
15 Dec 5.5 03:12:36 10° NE 03:16:36 23° E 03:20:34 10° SE visible
15 Dec 3.0 04:51:09 10° NNE 04:56:16 83° WNW 05:01:22 10° SSW visible
15 Dec 2.9 14:35:58 10° SSE 14:41:01 69° ENE 14:46:06 10° NNW visible
15 Dec 5.0 16:16:11 10° SSW 16:20:30 28° W 16:24:52 10° NNW visible
16 Dec 6.1 02:36:56 10° NE 02:39:14 13° E 02:41:31 10° ESE visible
16 Dec 3.7 04:14:22 10° NNE 04:19:25 57° ESE 04:24:25 10° S visible
16 Dec 3.4 13:59:39 10° SE 14:04:23 41° ENE 14:09:09 10° N visible
16 Dec 4.0 15:38:30 10° S 15:43:25 48° W 15:48:22 10° NNW visible
16 Dec 6.2 17:22:47 10° W 17:23:45 10° WNW 17:24:45 10° WNW visible
17 Dec 4.8 03:37:46 10° NNE 03:42:22 33° E 03:46:57 10° SSE visible
17 Dec 3.1 05:16:42 10° NNE 05:21:43 58° WNW 05:26:42 10° SW visible
17 Dec 3.9 13:23:45 10° ESE 13:27:55 26° NE 13:32:06 10° N visible
17 Dec 3.0 15:01:24 10° SSE 15:06:30 83° WSW 15:11:38 10° NNW visible
17 Dec 5.6 16:42:46 10° SW 16:46:20 19° W 16:49:56 10° NW visible
18 Dec 5.7 03:01:31 10° NE 03:05:09 19° E 03:08:47 10° SE visible
18 Dec 3.1 04:39:50 10° NNE 04:44:58 84° ESE 04:50:05 10° SSW visible
18 Dec 3.0 14:24:46 10° SE 14:29:46 59° ENE 14:34:46 10° NNW visible
18 Dec 4.7 16:04:33 10° SSW 16:09:06 32° W 16:13:42 10° NNW visible
19 Dec 6.3 02:26:34 10° ENE 02:27:44 11° ENE 02:28:55 10° E visible
19 Dec 4.1 04:03:06 10° NNE 04:08:04 49° E 04:12:59 10° S visible
19 Dec 3.5 13:48:35 10° ESE 13:53:11 36° ENE 13:57:48 10° N visible
19 Dec 3.7 15:27:04 10° S 15:32:05 56° W 15:37:06 10° NNW visible
19 Dec 6.1 17:10:03 10° WSW 17:12:16 13° W 17:14:29 10° NW visible
20 Dec 5.1 03:26:36 10° NNE 03:30:59 28° E 03:35:20 10° SSE visible
20 Dec 3.0 05:05:23 10° NNE 05:10:28 67° WNW 05:15:30 10° SSW visible
20 Dec 2.9 14:50:07 10° SSE 14:55:13 85° ENE 15:00:20 10° NNW visible
20 Dec 5.4 16:30:57 10° SW 16:34:54 22° W 16:38:52 10° NW visible
21 Dec 5.9 02:50:31 10° NE 02:53:42 16° E 02:56:53 10° ESE visible
21 Dec 3.3 04:28:33 10° NNE 04:33:40 72° ESE 04:38:45 10° S visible
21 Dec 3.1 14:13:37 10° SE 14:18:31 50° ENE 14:23:26 10° N visible
21 Dec 4.4 15:53:00 10° SSW 15:57:43 38° W 16:02:29 10° NNW visible
22 Dec 4.4 03:51:52 10° NNE 03:56:43 41° E 04:01:31 10° SSE visible
22 Dec 3.7 13:37:33 10° ESE 13:41:59 31° NE 13:46:25 10° N visible
22 Dec 3.4 15:15:41 10° S 15:20:45 67° WSW 15:25:51 10° NNW visible
22 Dec 5.9 16:57:53 10° WSW 17:00:47 15° W 17:03:42 10° NW visible
